• In Hungary
  • List of Countries
  • For 7 days
  • Water Temperature
  • Satellite Maps
  • Weather Map
  • News
  • Weather Widgets
  • user-avatar
    Login

    Hourly Weather Botogol

    Today, 25 February, Sunday

    Time Temperature Precipitation Wind Pressure Humidity
    00:00 -19°C° 0 mm 2 mps 614 mmHg 82%
    01:00 -19°C° 0 mm 2 mps 613 mmHg 82%
    02:00 -20°C° 0 mm 2 mps 613 mmHg 82%
    03:00 -20°C° 0 mm 2 mps 613 mmHg 82%
    04:00 -20°C° 0 mm 2 mps 613 mmHg 82%
    05:00 -19°C° 0 mm 2 mps 613 mmHg 83%
    06:00 -19°C° 0 mm 2 mps 613 mmHg 84%
    07:00 -16°C° 0 mm 1 mps 613 mmHg 85%
    08:00 -14°C° 0.1 mm 1 mps 614 mmHg 86%
    09:00 -13°C° 0.1 mm 1 mps 614 mmHg 88%
    10:00 -13°C° 0.1 mm 2 mps 615 mmHg 89%
    11:00 -14°C° 0.1 mm 3 mps 615 mmHg 83%
    12:00 -14°C° 0.1 mm 5 mps 616 mmHg 78%
    13:00 -15°C° 0 mm 7 mps 616 mmHg 73%
    14:00 -15°C° 0.1 mm 7 mps 617 mmHg 75%
    15:00 -16°C° 0.1 mm 6 mps 617 mmHg 77%
    16:00 -17°C° 0.1 mm 6 mps 617 mmHg 79%
    17:00 -18°C° 0.2 mm 4 mps 618 mmHg 84%
    18:00 -18°C° 0.2 mm 3 mps 618 mmHg 89%
    19:00 -19°C° 0 mm 2 mps 618 mmHg 95%
    20:00 -20°C° 0.1 mm 2 mps 618 mmHg 94%
    21:00 -19°C° 0.1 mm 1 mps 619 mmHg 94%
    22:00 -19°C° 0.1 mm 1 mps 619 mmHg 94%
    23:00 -20°C° 0 mm 1 mps 619 mmHg 93%

    Tomorrow, 26 February, Monday

    Time Temperature Precipitation Wind Pressure Humidity
    00:00 -24°C° 0 mm 2 mps 618 mmHg 91%
    01:00 -25°C° 0 mm 2 mps 618 mmHg 89%
    02:00 -26°C° 0 mm 2 mps 618 mmHg 87%
    03:00 -26°C° 0 mm 2 mps 618 mmHg 85%
    04:00 -27°C° 0 mm 2 mps 618 mmHg 83%
    05:00 -27°C° 0 mm 2 mps 618 mmHg 83%
    06:00 -27°C° 0 mm 2 mps 617 mmHg 82%
    07:00 -27°C° 0 mm 2 mps 617 mmHg 82%
    08:00 -25°C° 0 mm 2 mps 618 mmHg 81%
    09:00 -21°C° 0 mm 2 mps 618 mmHg 80%
    10:00 -19°C° 0 mm 2 mps 619 mmHg 78%
    11:00 -18°C° 0 mm 2 mps 619 mmHg 75%
    12:00 -17°C° 0 mm 2 mps 618 mmHg 72%
    13:00 -15°C° 0 mm 2 mps 618 mmHg 69%
    14:00 -15°C° 0.1 mm 2 mps 618 mmHg 71%
    15:00 -15°C° 0.1 mm 2 mps 618 mmHg 73%
    16:00 -15°C° 0.1 mm 2 mps 617 mmHg 75%
    17:00 -16°C° 0.1 mm 2 mps 617 mmHg 81%
    18:00 -16°C° 0.1 mm 1 mps 617 mmHg 87%
    19:00 -17°C° 0.1 mm 1 mps 616 mmHg 93%
    20:00 -18°C° 0 mm 1 mps 616 mmHg 93%
    21:00 -20°C° 0 mm 1 mps 616 mmHg 93%
    22:00 -21°C° 0 mm 1 mps 615 mmHg 94%
    23:00 -21°C° 0 mm 1 mps 615 mmHg 92%

    Day after tomorrow, 27 February, Tuesday

    Time Temperature Precipitation Wind Pressure Humidity
    00:00 -22°C° 0 mm 1 mps 615 mmHg 91%
    01:00 -23°C° 0 mm 1 mps 614 mmHg 90%
    02:00 -23°C° 0 mm 1 mps 614 mmHg 90%
    03:00 -24°C° 0 mm 1 mps 614 mmHg 89%
    04:00 -24°C° 0 mm 1 mps 614 mmHg 89%
    05:00 -24°C° 0 mm 1 mps 614 mmHg 90%
    06:00 -24°C° 0 mm 1 mps 614 mmHg 90%
    07:00 -23°C° 0 mm 1 mps 614 mmHg 91%
    08:00 -22°C° 0 mm 1 mps 614 mmHg 89%
    09:00 -20°C° 0 mm 1 mps 615 mmHg 88%
    10:00 -19°C° 0 mm 1 mps 615 mmHg 86%
    11:00 -18°C° 0.1 mm 1 mps 615 mmHg 84%
    12:00 -19°C° 0.1 mm 2 mps 615 mmHg 81%
    13:00 -18°C° 0.1 mm 2 mps 615 mmHg 78%
    14:00 -18°C° 0.1 mm 2 mps 615 mmHg 81%
    15:00 -18°C° 0.1 mm 2 mps 615 mmHg 83%
    16:00 -21°C° 0.1 mm 3 mps 615 mmHg 85%
    17:00 -20°C° 0.1 mm 2 mps 616 mmHg 89%
    18:00 -23°C° 0.1 mm 2 mps 616 mmHg 93%
    19:00 -24°C° 0.1 mm 2 mps 616 mmHg 96%
    20:00 -22°C° 0 mm 1 mps 616 mmHg 97%
    21:00 -23°C° 0 mm 1 mps 616 mmHg 97%
    22:00 -24°C° 0 mm 1 mps 617 mmHg 98%
    23:00 -25°C° 0 mm 1 mps 617 mmHg 97%

    28 February, Wednesday

    Time Temperature Precipitation Wind Pressure Humidity
    00:00 -27°C° 0 mm 1 mps 617 mmHg 97%
    01:00 -27°C° 0 mm 1 mps 617 mmHg 96%
    02:00 -28°C° 0 mm 1 mps 617 mmHg 95%
    03:00 -28°C° 0 mm 1 mps 617 mmHg 94%
    04:00 -28°C° 0 mm 1 mps 617 mmHg 93%
    05:00 -29°C° 0 mm 1 mps 617 mmHg 92%
    06:00 -29°C° 0 mm 1 mps 617 mmHg 91%
    07:00 -30°C° 0 mm 1 mps 617 mmHg 90%
    08:00 -28°C° 0 mm 1 mps 617 mmHg 87%
    09:00 -24°C° 0 mm 1 mps 618 mmHg 83%
    10:00 -25°C° 0 mm 2 mps 619 mmHg 80%
    11:00 -24°C° 0 mm 2 mps 618 mmHg 75%
    12:00 -21°C° 0 mm 2 mps 618 mmHg 71%
    13:00 -20°C° 0 mm 2 mps 618 mmHg 67%
    14:00 -20°C° 0 mm 2 mps 617 mmHg 67%
    15:00 -19°C° 0 mm 2 mps 617 mmHg 67%
    16:00 -19°C° 0 mm 2 mps 616 mmHg 66%
    17:00 -21°C° 0 mm 2 mps 615 mmHg 69%
    18:00 -25°C° 0 mm 2 mps 614 mmHg 72%
    19:00 -27°C° 0 mm 2 mps 613 mmHg 74%
    20:00 -27°C° 0 mm 2 mps 613 mmHg 74%
    21:00 -28°C° 0 mm 2 mps 613 mmHg 73%
    22:00 -28°C° 0 mm 2 mps 612 mmHg 72%
    23:00 -28°C° 0 mm 2 mps 612 mmHg 73%

    1 March, Thursday

    Time Temperature Precipitation Wind Pressure Humidity
    00:00 -30°C° 0 mm 3 mps 611 mmHg 74%
    01:00 -29°C° 0 mm 3 mps 611 mmHg 75%
    02:00 -29°C° 0 mm 3 mps 610 mmHg 76%
    03:00 -27°C° 0 mm 2 mps 610 mmHg 76%
    04:00 -26°C° 0 mm 2 mps 609 mmHg 76%
    05:00 -26°C° 0 mm 2 mps 609 mmHg 77%
    06:00 -26°C° 0 mm 2 mps 609 mmHg 78%
    07:00 -25°C° 0 mm 2 mps 609 mmHg 78%
    08:00 -23°C° 0 mm 2 mps 609 mmHg 78%
    09:00 -19°C° 0 mm 2 mps 610 mmHg 78%
    10:00 -17°C° 0 mm 2 mps 610 mmHg 79%
    11:00 -15°C° 0 mm 2 mps 610 mmHg 77%
    12:00 -13°C° 0 mm 2 mps 610 mmHg 76%
    13:00 -12°C° 0 mm 3 mps 609 mmHg 74%
    14:00 -12°C° 0 mm 3 mps 609 mmHg 75%
    15:00 -12°C° 0 mm 3 mps 609 mmHg 76%
    16:00 -11°C° 0 mm 4 mps 609 mmHg 78%
    17:00 -13°C° 0.1 mm 3 mps 608 mmHg 81%
    18:00 -14°C° 0.1 mm 2 mps 607 mmHg 85%
    19:00 -15°C° 0.1 mm 2 mps 607 mmHg 88%
    20:00 -15°C° 0 mm 2 mps 606 mmHg 88%
    21:00 -15°C° 0 mm 2 mps 606 mmHg 87%
    22:00 -17°C° 0 mm 3 mps 606 mmHg 86%
    23:00 -17°C° 0 mm 3 mps 605 mmHg 85%

    2 March, Friday

    Time Temperature Precipitation Wind Pressure Humidity
    00:00 -17°C° 0 mm 3 mps 604 mmHg 85%
    01:00 -17°C° 0 mm 3 mps 604 mmHg 84%
    02:00 -16°C° 0.1 mm 3 mps 603 mmHg 85%
    03:00 -16°C° 0.1 mm 3 mps 602 mmHg 85%
    04:00 -15°C° 0.1 mm 3 mps 601 mmHg 86%
    05:00 -15°C° 0.2 mm 3 mps 601 mmHg 88%
    06:00 -15°C° 0.2 mm 3 mps 601 mmHg 90%
    07:00 -15°C° 0.2 mm 3 mps 601 mmHg 92%
    08:00 -14°C° 0.1 mm 3 mps 601 mmHg 87%
    09:00 -15°C° 0.1 mm 4 mps 602 mmHg 81%
    10:00 -15°C° 0.1 mm 5 mps 603 mmHg 76%
    11:00 -16°C° 0.1 mm 6 mps 604 mmHg 74%
    12:00 -17°C° 0.1 mm 6 mps 604 mmHg 71%
    13:00 -18°C° 0.1 mm 7 mps 605 mmHg 69%
    14:00 -20°C° 0 mm 6 mps 605 mmHg 69%
    15:00 -21°C° 0 mm 6 mps 605 mmHg 70%
    16:00 -21°C° 0 mm 5 mps 605 mmHg 71%
    17:00 -24°C° 0 mm 4 mps 605 mmHg 75%
    18:00 -25°C° 0 mm 3 mps 605 mmHg 79%
    19:00 -27°C° 0 mm 2 mps 605 mmHg 83%
    20:00 -28°C° 0 mm 2 mps 605 mmHg 82%
    21:00 -29°C° 0 mm 2 mps 605 mmHg 82%
    22:00 -30°C° 0 mm 2 mps 605 mmHg 81%
    23:00 -30°C° 0 mm 2 mps 605 mmHg 80%
    Show more